Location: *
(38.9555°S, 57.3572°E)
Time: 01:41:50
(UTC+00:00)

Meteor 2-16 Rocket - Pass Details

Date: 15 July 2020
Orbit: 942 x 956 km, 82.6° (Epoch: 06 August)

Event Time Altitude Azimuth Distance (km) Brightness Sun altitude
Rises 14:20:40 0° 186° (S) 3,660 7.4 -14.0°
Reaches altitude 10° 14:23:12 10° 184° (S) 2,706 6.7 -14.5°
Maximum altitude 14:29:24 74° 98° (E) 994 4.4 -15.6°
Drops below altitude 10° 14:35:29 10° 13° (NNE) 2,664 6.8 -16.8°
Sets 14:37:58 0° 11° (N) 3,599 7.5 -17.2°
